Location: Amherst
(42.5000°N, 72.5000°W)
Time: 05:46:19
(UTC-04:00)

ISS - Pass Details

Date: 25 May 2018
Orbit: 402 x 407 km, 51.6° (Epoch: 27 May)

Event Time Altitude Azimuth Distance (km) Brightness Sun altitude
Rises 23:48:26 0° 303° (WNW) 2,320 0.7 -25.0°
Reaches altitude 10° 23:50:59 10° 323° (NW) 1,459 -0.1 -25.1°
Maximum altitude 23:53:19 18° 9° (N) 1,075 -1.0 -25.2°
Enters shadow 23:55:03 13° 46° (NE) 1,301 -0.9 -25.3°
